Wetbulb
64.79 60.99 56.73 52.11 43.47 40.48 35.57 40.05 41.81 44.48 45.57 46.15 46.94 49.17 48.87 54.17 52.34 47.77 62.17 67.23 70.88 72.29 74.00 74.39 75.65 75.82 75.93 75.54 74.75 74.60 74.22 74.22 73.14 72.27 71.54 70.97 70.52 71.07 71.97 71.64 70.95 70.51 69.60 69.15 69.55 69.45 69.02 69.16 69.00
62.97 59.86 53.11 47.20 38.94 33.83 36.35 41.36 42.18 44.18 47.85 52.00 51.09 53.00 54.77 54.23 60.25 62.63 65.23 69.20 71.83 73.05 73.57 73.59 75.53 75.89 75.52 74.95 74.42 74.25 73.43 72.67 72.05 71.13 69.92 69.72 70.43 70.59 72.10 72.04 70.90 70.29 68.88 68.40 68.88 68.60 68.44 69.24 69.19
62.11 57.15 49.46 43.20 37.15 35.20 36.37 41.60 43.61 46.17 46.68 46.14 51.78 56.39 55.34 55.70 62.24 64.05 65.22 71.28 72.34 72.53 73.30 74.07 75.54 75.55 75.11 74.49 73.83 72.77 72.30 71.82 71.04 69.99 70.59 70.59 70.58 70.59 72.51 71.95 70.66 69.48 68.23 67.97 68.12 67.96 67.95 68.66 68.37
57.46 53.21 48.63 40.65 37.31 41.26 40.44 42.60 45.53 46.70 46.24 46.62 52.14 54.42 58.24 61.56 63.26 64.66 70.56 71.89 71.47 72.18 72.22 74.46 75.03 75.36 74.79 73.88 73.21 71.93 71.22 70.60 69.96 69.57 71.28 70.96 71.03 70.86 72.42 71.34 70.08 69.04 67.97 67.76 67.85 67.70 67.69 67.97 68.18
55.65 49.96 42.19 38.66 39.96 42.55 43.45 46.61 46.99 45.60 45.04 45.19 51.86 53.05 55.02 61.92 65.44 69.48 71.20 71.65 70.37 71.36 72.55 73.82 75.12 74.98 74.35 73.48 72.84 71.76 70.45 69.99 69.66 70.79 72.37 71.63 71.24 71.92 72.15 70.39 69.46 68.70 67.85 68.03 68.07 67.93 67.88 67.79 67.79
50.90 48.06 39.05 36.64 39.73 43.47 45.42 47.21 46.75 44.66 44.15 52.20 54.78 53.84 54.31 61.09 65.18 69.28 70.55 70.25 71.06 70.47 71.54 73.22 73.85 74.20 73.68 72.99 72.51 71.80 70.29 69.43 69.88 71.45 72.31 72.66 72.70 72.57 71.21 69.58 69.08 68.58 68.05 67.95 68.19 68.17 67.76 67.44 67.35
50.10 44.31 39.69 39.30 40.98 43.59 46.04 49.18 45.58 45.54 42.72 43.73 56.48 52.39 55.04 58.60 64.60 67.12 67.53 68.90 69.93 70.49 70.45 71.43 72.79 72.79 72.69 72.42 72.19 71.81 71.01 70.19 70.33 71.41 72.05 71.48 71.36 71.13 70.38 69.33 69.01 68.55 67.94 67.66 67.90 67.94 67.80 67.40 67.01
51.62 46.83 40.96 41.60 42.17 43.09 48.30 49.13 49.39 48.04 45.28 49.43 55.15 53.04 54.91 60.93 65.86 67.26 67.64 67.83 68.68 69.56 69.94 69.24 70.36 71.30 71.47 70.98 71.18 70.89 70.57 69.84 69.59 70.51 70.37 69.36 68.81 69.40 70.05 69.21 69.40 69.20 68.43 67.92 67.97 67.91 67.53 66.94 66.57
54.86 44.92 40.26 41.53 43.76 45.32 49.75 47.91 51.12 51.88 47.75 50.12 59.48 57.63 60.97 64.36 66.97 66.65 67.18 67.93 68.86 69.82 70.09 68.79 68.97 68.81 69.02 69.58 69.74 70.17 69.79 68.91 68.26 68.09 67.81 67.05 65.56 65.99 66.13 66.56 67.63 69.11 69.10 68.19 68.06 68.02 67.34 66.67 64.93
49.76 44.40 42.32 46.37 48.17 47.28 50.28 49.37 48.67 48.14 47.15 49.74 50.30 61.17 63.33 65.95 65.72 64.79 64.66 64.42 65.74 67.12 67.86 68.26 67.91 67.63 67.00 68.63 67.80 67.63 67.73 66.36 65.01 64.58 64.32 64.01 63.66 63.57 65.25 64.46 66.15 68.12 68.68 68.68 68.37 68.65 67.83 64.73 59.35
48.77 44.52 46.47 48.05 50.97 51.84 50.30 49.86 49.66 46.60 44.76 46.21 47.23 50.44 61.12 63.88 64.89 64.67 64.83 65.10 65.63 65.48 66.30 67.32 67.16 67.14 66.82 66.89 66.20 65.85 65.75 64.76 63.80 63.07 62.63 62.17 62.32 61.66 62.10 61.28 62.03 63.01 64.39 64.47 65.71 64.61 62.33 59.73 57.90
44.40 48.31 49.37 51.02 51.90 50.53 48.88 51.13 48.23 47.48 47.05 50.49 50.06 51.36 59.73 61.31 63.19 63.57 64.14 64.59 63.81 64.12 65.07 65.84 66.15 66.01 65.82 66.07 65.67 65.21 64.70 63.73 62.76 62.52 62.01 60.50 59.78 59.59 59.66 59.77 60.00 60.91 61.88 62.21 62.21 62.02 60.90 59.35 58.04
42.80 46.89 49.95 51.59 51.07 50.76 51.53 48.87 48.69 48.27 50.03 50.49 51.35 54.07 59.05 59.70 60.46 60.47 62.33 63.74 63.27 63.28 64.09 64.45 64.81 64.93 65.36 64.91 65.02 64.86 64.57 64.17 63.21 62.42 61.97 60.78 59.22 58.22 58.31 58.74 59.05 59.88 60.41 60.92 60.89 61.08 60.43 59.10 57.86
46.52 47.63 49.17 50.79 50.43 50.88 48.55 47.44 48.53 49.41 49.88 49.28 49.92 51.36 57.63 58.51 59.58 59.71 61.97 62.70 62.54 63.29 63.91 64.44 64.41 64.55 64.81 64.51 64.38 64.59 64.56 64.75 63.96 62.84 62.45 61.58 60.13 58.69 58.39 58.86 59.31 59.47 60.18 60.32 60.64 60.54 60.33 59.52 58.34
46.58 45.45 47.93 48.74 49.50 49.14 49.44 45.55 44.08 49.84 49.81 47.76 47.78 46.52 50.10 55.28 58.68 59.78 60.89 61.79 62.35 62.81 64.34 64.39 64.44 64.66 63.83 64.21 64.39 64.00 64.41 64.86 64.49 64.40 63.33 62.52 61.44 60.02 59.05 59.11 59.35 59.89 60.00 59.88 59.64 59.83 59.83 59.25 59.20
42.55 43.89 40.19 45.47 48.08 48.29 46.67 40.12 46.33 50.64 48.20 47.40 47.94 45.84 45.92 47.47 48.81 56.26 60.17 61.34 61.95 62.39 63.27 64.34 66.16 65.11 63.84 63.49 64.14 64.01 63.39 63.24 63.93 64.11 63.88 63.60 62.84 61.35 59.55 58.79 59.04 59.88 59.42 59.32 58.80 58.80 58.47 58.79 58.68
41.11 33.53 34.91 40.56 47.43 46.75 44.28 39.71 46.44 50.38 48.20 47.14 48.51 46.63 45.57 45.93 47.31 47.19 47.97 55.05 60.61 61.13 62.36 63.13 64.14 64.69 64.63 63.18 62.81 62.61 62.64 61.53 62.12 62.71 63.42 63.84 64.06 62.71 61.23 60.02 59.76 59.13 58.75 58.31 58.47 58.03 58.27 57.27 57.44
32.76 32.01 33.09 35.79 42.58 45.18 42.06 40.01 45.84 48.28 48.27 46.47 48.57 48.85 45.55 45.62 46.31 46.50 46.86 45.71 46.50 47.85 53.27 58.48 62.98 63.63 63.91 64.07 63.58 63.12 62.61 61.56 61.48 61.42 61.93 62.71 63.06 63.31 61.24 60.91 59.85 59.14 58.42 57.73 57.20 57.86 57.29 57.87 57.73
36.12 34.81 34.30 36.34 43.09 42.40 41.86 41.00 42.75 46.00 46.67 46.50 46.91 48.43 46.12 45.10 44.18 43.67 43.79 43.71 45.56 46.34 46.71 47.19 50.46 48.66 56.51 61.73 61.55 61.39 61.49 62.13 62.58 62.97 63.91 63.71 62.68 61.83 60.88 61.09 61.37 60.94 59.45 59.78 58.75 57.39 56.28 55.48 54.56
36.92 33.77 32.81 36.55 41.04 41.83 39.63 39.62 42.86 42.97 44.76 46.78 47.01 48.35 47.60 42.74 42.66 43.52 43.92 44.84 47.04 46.99 47.28 47.91 48.36 47.90 47.57 50.16 52.01 58.05 59.93 60.96 61.78 62.19 62.45 62.68 63.42 63.72 63.09 61.37 60.38 59.79 59.39 58.94 58.38 57.53 55.85 55.65 53.64
33.58 33.24 33.08 34.02 37.26 37.46 38.34 36.58 38.51 42.31 45.11 44.59 45.37 44.66 41.82 42.19 42.46 43.41 44.16 45.44 46.94 47.53 48.14 48.71 48.24 48.47 48.42 47.64 47.41 47.61 48.07 50.08 54.10 57.20 58.96 58.40 58.33 61.05 62.04 62.44 62.47 61.63 60.02 59.53 58.33 57.43 56.55 56.73 53.61
31.56 36.86 36.66 35.84 33.53 29.60 36.83 28.06 34.20 40.10 42.04 42.05 44.38 45.68 42.41 41.25 41.68 43.91 44.90 45.63 46.14 47.07 48.15 48.55 48.76 48.62 48.79 48.60 47.52 45.87 45.18 45.33 46.41 47.81 48.91 48.81 49.95 52.25 54.90 56.32 58.68 60.02 60.06 59.29 59.05 58.19 57.03 55.82 56.94
34.69 37.56 35.94 34.65 31.45 29.76 30.04 28.98 31.86 34.29 38.66 42.23 44.37 44.49 42.19 41.30 41.55 43.78 45.03 46.60 46.75 46.57 46.23 46.81 47.36 47.69 47.88 48.12 48.17 47.27 46.53 45.96 46.30 47.17 48.52 49.12 50.09 51.59 51.93 52.58 53.09 57.07 58.97 59.93 59.70 58.10 56.81 55.73 56.02
38.91 35.36 34.07 32.43 30.31 21.29 29.97 29.27 29.03 30.54 35.54 36.60 39.57 42.97 43.31 41.46 40.71 43.59 45.25 46.64 45.42 45.65 45.64 45.76 45.89 45.55 46.52 47.30 47.77 47.56 46.91 46.84 47.45 47.62 48.31 48.80 49.39 49.81 49.39 50.22 50.36 51.37 53.13 56.92 59.30 59.86 58.31 56.36 56.34
35.90 31.15 22.33 21.77 21.02 20.50 28.53 27.72 33.16 36.20 35.33 37.34 38.89 39.13 38.98 39.18 40.56 43.38 44.86 44.37 44.49 44.88 44.80 45.48 44.80 43.80 45.47 45.83 45.87 46.49 46.36 46.29 46.13 46.43 46.41 46.38 47.31 47.47 47.22 47.97 48.41 49.28 51.12 55.61 55.91 56.74 57.48 57.62 57.40
33.12 30.48 23.05 18.69 20.61 21.73 27.56 25.42 31.42 37.22 38.86 38.02 39.24 39.22 38.67 39.81 41.50 43.41 44.35 43.85 44.23 44.55 44.06 43.79 43.05 42.45 44.05 43.66 43.16 43.08 43.89 43.69 42.97 42.55 43.22 43.03 43.91 45.51 45.72 46.00 46.29 46.20 47.13 49.81 54.95 57.07 56.88 57.01 56.28
34.46 30.95 29.97 22.78 19.51 17.90 24.41 28.16 33.46 35.84 36.48 36.52 36.22 37.89 38.38 40.39 41.92 43.09 43.51 43.43 43.71 43.44 43.30 42.86 41.83 41.52 42.54 42.08 41.34 40.48 40.48 40.53 40.22 39.99 40.33 40.51 40.35 43.16 42.27 42.73 42.84 42.87 43.68 45.50 48.50 49.45 50.73 51.39 50.48
36.18 35.91 28.80 23.03 15.90 16.62 20.31 22.39 27.04 31.54 33.74 35.66 35.86 37.29 39.09 41.52 42.32 43.02 43.08 43.02 43.23 43.15 42.10 41.63 41.44 40.98 41.00 40.64 40.06 39.28 38.58 38.64 38.50 38.60 38.28 38.60 38.75 39.58 39.74 39.81 40.05 40.28 40.72 42.11 43.11 43.01 43.85 45.94 46.18
36.21 31.91 30.99 29.16 24.00 19.26 17.70 23.34 30.51 32.10 33.23 33.26 35.77 37.95 39.69 41.02 42.12 42.61 42.57 42.65 42.90 41.50 40.58 40.01 40.12 40.09 39.62 39.33 38.65 38.02 37.78 37.96 37.77 37.49 37.46 37.66 37.84 38.03 38.29 38.42 38.32 38.21 38.40 38.70 39.38 39.62 40.34 43.39 42.74
36.49 34.50 31.59 24.68 21.17 20.12 19.03 23.06 33.19 32.49 33.38 34.08 36.54 39.13 40.58 42.31 42.67 42.27 42.21 41.70 41.22 40.11 39.30 39.25 39.35 39.34 38.88 38.41 37.75 37.23 37.12 36.99 36.57 36.55 37.04 37.44 37.07 37.87 37.83 37.73 37.20 37.26 37.24 37.13 36.98 36.82 37.10 36.93 36.72
MSLP
1014.06 1013.93 1013.94 1014.27 1016.20 1017.00 1016.79 1015.96 1014.93 1013.96 1013.42 1012.45 1012.23 1012.30 1012.74 1013.18 1013.56 1014.78 1014.26 1014.37 1014.26 1014.84 1015.01 1015.37 1015.69 1016.05 1016.36 1016.62 1016.94 1017.25 1017.52 1017.61 1017.71 1017.98 1018.22 1018.36 1018.47 1018.53 1018.61 1018.72 1018.94 1019.06 1019.18 1019.38 1019.52 1019.69 1019.78 1019.91 1020.02
1014.15 1014.15 1014.32 1015.50 1016.85 1017.47 1016.88 1015.84 1015.06 1014.13 1013.31 1012.87 1012.66 1012.59 1013.03 1013.59 1013.71 1014.09 1014.50 1014.54 1014.31 1014.75 1015.13 1015.50 1015.79 1016.17 1016.53 1016.77 1017.10 1017.39 1017.62 1017.86 1018.06 1018.23 1018.42 1018.54 1018.63 1018.75 1018.79 1018.99 1019.28 1019.41 1019.59 1019.81 1019.95 1020.13 1020.21 1020.28 1020.37
1014.32 1014.49 1015.10 1016.26 1017.29 1017.44 1016.61 1015.76 1015.14 1014.32 1013.35 1013.07 1012.98 1012.90 1013.30 1013.68 1013.92 1014.04 1014.06 1014.39 1014.68 1014.97 1015.17 1015.57 1015.97 1016.28 1016.71 1016.97 1017.28 1017.55 1017.82 1018.09 1018.32 1018.48 1018.64 1018.74 1018.83 1018.90 1018.98 1019.24 1019.52 1019.77 1019.99 1020.20 1020.33 1020.43 1020.52 1020.62 1020.65
1014.72 1014.88 1016.29 1016.67 1017.32 1016.81 1016.30 1015.82 1015.19 1014.42 1013.33 1013.19 1013.23 1013.45 1013.65 1013.72 1013.78 1013.86 1014.14 1014.34 1015.06 1015.28 1015.42 1015.64 1016.04 1016.43 1016.84 1017.24 1017.50 1017.78 1017.99 1018.18 1018.45 1018.70 1018.83 1018.91 1018.96 1019.03 1019.11 1019.50 1019.84 1020.09 1020.32 1020.48 1020.59 1020.65 1020.78 1020.88 1020.89
1015.42 1015.63 1016.60 1017.17 1017.08 1016.57 1016.10 1015.71 1015.21 1014.86 1014.05 1013.57 1013.61 1013.82 1014.01 1014.01 1013.84 1014.07 1014.28 1014.68 1015.13 1015.52 1015.72 1015.89 1016.20 1016.55 1016.96 1017.40 1017.72 1017.97 1018.10 1018.33 1018.59 1018.84 1018.80 1019.00 1019.10 1019.19 1019.45 1019.87 1020.13 1020.33 1020.56 1020.73 1020.83 1020.92 1021.00 1021.08 1021.13
1016.08 1016.10 1016.96 1017.21 1016.94 1016.43 1016.03 1015.62 1015.36 1015.04 1014.19 1013.87 1014.05 1014.08 1014.33 1014.33 1014.31 1014.41 1014.60 1014.85 1015.11 1015.57 1015.89 1016.14 1016.40 1016.72 1017.10 1017.53 1017.89 1018.10 1018.32 1018.56 1018.75 1018.86 1018.96 1019.05 1019.21 1019.47 1019.74 1020.17 1020.35 1020.56 1020.72 1020.87 1021.00 1021.12 1021.21 1021.30 1021.41
1016.36 1016.91 1016.59 1016.68 1016.64 1016.36 1015.87 1015.48 1015.59 1015.38 1014.68 1014.16 1014.11 1014.54 1014.65 1014.55 1014.63 1014.70 1014.92 1015.17 1015.29 1015.63 1016.00 1016.26 1016.47 1016.83 1017.22 1017.65 1018.01 1018.20 1018.47 1018.75 1019.00 1019.12 1019.09 1019.27 1019.57 1019.79 1020.10 1020.40 1020.57 1020.75 1020.86 1021.01 1021.15 1021.28 1021.41 1021.48 1021.61
1016.44 1017.42 1016.83 1016.34 1016.28 1016.05 1015.91 1015.62 1015.66 1015.57 1014.92 1014.19 1014.31 1014.74 1014.69 1014.40 1014.66 1015.00 1015.29 1015.60 1015.80 1015.97 1016.16 1016.40 1016.61 1016.93 1017.33 1017.79 1018.07 1018.29 1018.56 1018.90 1019.18 1019.32 1019.52 1019.76 1019.98 1020.11 1020.25 1020.53 1020.62 1020.68 1020.85 1021.01 1021.22 1021.36 1021.51 1021.62 1021.72
1016.27 1016.63 1016.11 1015.68 1015.71 1015.81 1015.92 1015.92 1015.81 1015.41 1015.33 1014.65 1014.85 1014.85 1014.41 1014.37 1014.78 1015.33 1015.86 1016.13 1016.22 1016.40 1016.57 1016.59 1016.83 1017.12 1017.37 1017.70 1018.11 1018.45 1018.71 1018.95 1019.28 1019.58 1019.77 1020.07 1020.39 1020.53 1020.65 1020.82 1020.92 1021.01 1021.09 1021.21 1021.32 1021.44 1021.56 1021.64 1021.79
1015.62 1016.09 1015.62 1014.91 1015.27 1015.63 1016.11 1016.25 1016.39 1015.96 1015.70 1015.62 1015.44 1015.41 1015.16 1014.76 1015.03 1015.41 1015.83 1016.19 1016.45 1016.55 1016.69 1016.80 1016.97 1017.25 1017.60 1017.69 1018.14 1018.52 1018.80 1019.13 1019.42 1019.72 1020.01 1020.34 1020.55 1020.69 1020.78 1020.92 1021.03 1021.13 1021.24 1021.35 1021.47 1021.59 1021.69 1021.84 1022.07
1015.62 1014.84 1015.12 1014.98 1015.22 1015.73 1016.26 1016.54 1016.74 1016.67 1016.49 1016.66 1016.89 1016.40 1016.16 1015.63 1015.40 1015.59 1015.95 1016.01 1016.23 1016.56 1016.73 1016.87 1017.00 1017.36 1017.68 1017.89 1018.32 1018.69 1018.95 1019.24 1019.54 1019.78 1020.12 1020.42 1020.61 1020.77 1020.89 1021.08 1021.16 1021.22 1021.27 1021.49 1021.57 1021.72 1021.86 1022.03 1022.16
1015.54 1015.18 1015.28 1015.36 1015.52 1016.05 1016.37 1016.48 1016.74 1017.01 1016.75 1016.71 1016.59 1016.37 1016.27 1016.24 1015.67 1015.59 1015.76 1016.08 1016.29 1016.46 1016.60 1016.85 1017.04 1017.39 1017.76 1018.01 1018.40 1018.68 1019.01 1019.30 1019.59 1019.80 1020.09 1020.45 1020.70 1020.85 1020.98 1021.12 1021.20 1021.30 1021.39 1021.54 1021.68 1021.82 1021.94 1022.05 1022.04
1015.25 1015.07 1015.52 1015.57 1015.94 1016.24 1016.29 1016.72 1017.19 1016.49 1016.62 1016.65 1016.20 1015.98 1016.06 1016.32 1015.97 1016.02 1015.93 1016.04 1016.27 1016.51 1016.58 1016.77 1017.04 1017.39 1017.73 1018.09 1018.39 1018.66 1018.87 1019.12 1019.34 1019.73 1020.01 1020.24 1020.57 1020.74 1020.89 1021.00 1021.10 1021.23 1021.40 1021.50 1021.65 1021.78 1021.89 1021.96 1022.04
1014.82 1014.93 1015.04 1015.94 1016.04 1016.53 1016.59 1017.11 1017.33 1015.98 1016.43 1016.65 1016.68 1016.49 1016.42 1016.43 1016.14 1016.01 1015.94 1016.06 1016.25 1016.43 1016.58 1016.72 1016.97 1017.16 1017.57 1017.89 1018.20 1018.44 1018.69 1018.90 1019.23 1019.50 1019.73 1019.96 1020.17 1020.46 1020.70 1020.81 1020.92 1021.06 1021.16 1021.27 1021.44 1021.59 1021.68 1021.73 1021.84
1015.02 1015.45 1016.23 1016.37 1016.45 1016.66 1017.12 1017.84 1017.33 1016.57 1016.79 1017.12 1017.19 1016.89 1016.66 1016.32 1016.22 1016.06 1015.92 1015.97 1016.17 1016.28 1016.29 1016.51 1016.76 1016.93 1017.42 1017.67 1017.97 1018.28 1018.49 1018.74 1019.00 1019.13 1019.39 1019.56 1019.79 1020.07 1020.25 1020.52 1020.65 1020.65 1020.79 1021.04 1021.27 1021.33 1021.47 1021.57 1021.54
1015.56 1015.92 1016.55 1016.52 1016.97 1017.24 1017.87 1017.50 1017.23 1017.03 1017.51 1017.38 1017.32 1017.15 1016.76 1016.36 1016.18 1016.20 1015.97 1015.96 1016.12 1016.15 1016.25 1016.42 1016.69 1016.93 1017.31 1017.51 1017.67 1017.95 1018.27 1018.52 1018.66 1018.81 1019.03 1019.22 1019.35 1019.55 1019.87 1020.15 1020.25 1020.24 1020.56 1020.79 1020.98 1021.07 1021.31 1021.38 1021.49
1015.89 1016.13 1016.39 1016.70 1016.50 1016.76 1017.70 1017.14 1016.41 1016.91 1017.75 1017.41 1017.36 1017.27 1017.09 1016.78 1016.25 1015.98 1015.87 1015.98 1016.05 1016.08 1016.31 1016.48 1016.61 1016.75 1016.98 1017.23 1017.47 1017.77 1018.00 1018.33 1018.42 1018.53 1018.66 1018.77 1018.95 1019.09 1019.35 1019.52 1019.58 1019.92 1020.27 1020.50 1020.67 1020.92 1021.12 1021.13 1021.11
1015.27 1016.21 1016.25 1016.23 1016.22 1016.46 1016.62 1016.44 1016.11 1016.87 1017.40 1017.25 1017.15 1017.04 1017.00 1016.94 1016.68 1016.34 1015.99 1015.95 1015.97 1016.16 1016.35 1016.53 1016.62 1016.77 1016.97 1017.14 1017.37 1017.61 1017.85 1018.01 1018.11 1018.15 1018.22 1018.34 1018.47 1018.63 1018.95 1019.12 1019.31 1019.54 1019.88 1020.21 1020.40 1020.56 1020.61 1020.66 1020.69
1015.60 1016.20 1016.47 1016.16 1016.00 1016.37 1016.45 1016.88 1016.41 1016.92 1017.09 1017.08 1016.96 1016.70 1016.65 1016.70 1016.38 1016.69 1016.53 1016.39 1016.47 1016.57 1016.57 1016.69 1016.85 1016.94 1016.99 1017.28 1017.57 1017.73 1017.78 1017.77 1017.83 1017.74 1017.78 1017.92 1018.07 1018.23 1018.50 1018.65 1018.74 1018.96 1019.37 1019.42 1019.64 1020.01 1020.28 1020.41 1020.42
1015.57 1016.36 1016.71 1016.46 1016.12 1016.58 1016.79 1016.85 1016.55 1016.63 1016.47 1017.09 1016.34 1015.78 1015.79 1016.72 1016.51 1016.75 1016.87 1016.78 1016.74 1016.88 1016.94 1016.97 1017.12 1017.22 1017.21 1017.27 1017.46 1017.57 1017.64 1017.66 1017.53 1017.46 1017.55 1017.68 1017.80 1017.86 1018.03 1018.17 1018.38 1018.56 1018.89 1019.00 1019.21 1019.58 1019.94 1020.00 1020.02
1015.91 1016.25 1016.60 1016.72 1016.81 1017.11 1016.96 1017.00 1016.37 1015.95 1015.81 1016.09 1016.31 1016.24 1016.17 1016.26 1016.57 1016.93 1017.12 1017.04 1017.02 1017.14 1017.17 1017.20 1017.19 1017.19 1017.30 1017.39 1017.58 1017.82 1017.91 1017.94 1017.87 1017.90 1017.94 1017.96 1017.94 1017.92 1017.93 1017.92 1017.93 1018.10 1018.35 1018.54 1018.69 1018.93 1019.30 1019.53 1019.63
1016.13 1016.13 1016.34 1017.03 1017.27 1017.61 1017.20 1017.01 1016.20 1015.77 1015.34 1015.59 1015.27 1015.53 1015.85 1016.19 1016.51 1016.97 1017.29 1017.26 1017.35 1017.42 1017.39 1017.34 1017.40 1017.46 1017.58 1017.63 1017.73 1017.94 1018.19 1018.46 1018.42 1018.42 1018.41 1018.41 1018.33 1018.30 1018.29 1018.22 1018.10 1018.00 1017.96 1018.18 1018.23 1018.35 1018.57 1019.00 1019.22
1016.31 1016.29 1016.78 1017.60 1018.12 1018.09 1018.02 1017.94 1015.67 1015.42 1015.00 1013.74 1013.58 1014.59 1015.05 1015.50 1015.94 1016.55 1016.93 1017.25 1017.49 1017.76 1017.81 1017.74 1017.77 1017.88 1017.97 1018.02 1018.10 1018.30 1018.60 1018.82 1018.79 1018.78 1018.74 1018.79 1018.81 1018.78 1018.77 1018.61 1018.45 1018.25 1017.87 1017.94 1017.91 1017.96 1018.13 1018.31 1018.62
1016.34 1016.87 1017.77 1018.70 1019.23 1019.20 1018.54 1018.17 1015.46 1015.01 1013.82 1013.82 1013.86 1014.07 1014.43 1015.04 1015.69 1016.40 1016.95 1017.29 1017.75 1018.06 1018.20 1018.16 1018.23 1018.47 1018.43 1018.43 1018.48 1018.61 1018.82 1018.97 1019.01 1019.11 1019.19 1019.11 1019.02 1018.97 1018.93 1018.76 1018.63 1018.40 1018.14 1017.82 1017.60 1017.57 1017.62 1017.81 1018.06
1016.76 1017.61 1019.36 1020.51 1020.68 1020.15 1019.02 1018.27 1015.33 1014.41 1014.00 1013.54 1013.62 1013.78 1014.17 1014.78 1015.66 1016.44 1016.95 1017.44 1017.89 1018.14 1018.28 1018.43 1018.54 1018.84 1018.93 1018.96 1019.04 1019.08 1019.22 1019.34 1019.56 1019.72 1019.77 1019.77 1019.64 1019.54 1019.39 1019.14 1018.93 1018.75 1018.40 1017.75 1017.48 1017.46 1017.43 1017.53 1017.73
1017.51 1017.98 1019.25 1020.39 1021.15 1020.63 1019.69 1017.71 1014.89 1013.62 1013.36 1013.36 1013.39 1013.71 1014.10 1014.76 1015.25 1016.17 1016.79 1017.34 1017.95 1018.26 1018.54 1018.73 1018.90 1019.17 1019.31 1019.43 1019.67 1019.69 1019.75 1019.91 1020.05 1020.15 1020.16 1020.16 1020.05 1019.90 1019.65 1019.36 1019.10 1018.97 1018.68 1018.20 1017.69 1017.64 1017.62 1017.59 1017.78
1017.97 1018.44 1019.10 1020.35 1021.60 1021.25 1019.19 1017.23 1015.27 1013.78 1013.58 1013.75 1013.98 1014.10 1014.34 1014.87 1015.63 1016.19 1016.86 1017.26 1017.86 1018.24 1018.60 1018.83 1019.07 1019.37 1019.63 1019.85 1020.09 1020.22 1020.28 1020.34 1020.46 1020.49 1020.43 1020.40 1020.29 1020.01 1019.90 1019.78 1019.66 1019.48 1019.19 1018.84 1018.41 1018.36 1018.42 1018.36 1018.49
1017.73 1018.44 1019.27 1020.50 1021.46 1021.21 1019.36 1017.91 1015.83 1014.47 1014.02 1013.89 1014.08 1014.52 1014.86 1015.37 1015.91 1016.35 1016.86 1017.25 1017.71 1018.08 1018.57 1018.97 1019.22 1019.59 1019.96 1020.17 1020.34 1020.55 1020.66 1020.73 1020.77 1020.80 1020.84 1020.79 1020.66 1020.48 1020.33 1020.21 1020.12 1020.08 1019.86 1019.50 1019.23 1019.17 1019.09 1019.06 1019.23
1018.29 1018.50 1019.24 1020.14 1020.73 1020.90 1020.12 1017.23 1015.10 1014.65 1014.09 1013.87 1013.76 1014.07 1014.63 1015.13 1015.65 1016.21 1016.84 1017.37 1017.85 1018.28 1018.67 1019.13 1019.47 1019.85 1020.24 1020.40 1020.64 1020.79 1020.98 1021.00 1021.07 1021.12 1021.21 1021.16 1021.06 1020.90 1020.78 1020.65 1020.58 1020.51 1020.41 1020.21 1019.98 1019.91 1019.87 1019.74 1019.94
1017.78 1018.30 1018.88 1019.91 1020.62 1020.85 1020.10 1016.71 1014.62 1014.47 1014.11 1013.70 1013.53 1013.87 1014.39 1015.05 1015.65 1016.34 1017.01 1017.50 1018.14 1018.64 1019.01 1019.34 1019.73 1020.07 1020.34 1020.57 1020.81 1021.05 1021.23 1021.24 1021.40 1021.47 1021.45 1021.46 1021.42 1021.28 1021.20 1021.04 1020.89 1020.86 1020.74 1020.76 1020.65 1020.62 1020.56 1020.57 1020.76
Wind_Speed
6 5 1 6 5 5 2 5 3 3 1 2 1 5 5 3 4 6 1 3 11 13 10 11 16 14 14 13 12 10 10 11 14 12 10 9 9 9 9 12 11 11 11 10 10 10 12 12 12
3 3 4 3 6 3 5 4 3 3 2 1 1 4 4 2 2 5 7 4 14 11 8 8 14 13 13 13 12 11 13 11 11 10 9 8 9 9 9 12 10 10 10 9 10 9 10 11 10
5 3 4 5 4 5 4 2 4 6 8 3 1 4 2 1 3 8 2 10 9 10 9 9 13 15 14 14 14 14 12 10 8 8 8 8 9 10 9 12 10 10 9 9 9 9 9 9 9
5 3 4 5 5 5 3 3 4 9 4 4 2 5 2 3 5 4 10 11 10 8 7 11 15 14 14 14 12 12 12 10 9 6 6 9 9 10 9 12 10 9 9 9 9 9 9 8 7
3 2 3 3 4 3 1 4 5 5 5 1 1 3 2 4 3 11 13 13 14 8 7 10 14 15 15 13 12 11 11 11 10 5 8 11 10 9 14 11 9 8 7 7 8 8 8 7 6
2 1 3 5 4 3 4 2 3 5 5 1 3 3 0 1 4 8 10 12 10 9 6 9 13 14 14 13 12 11 11 10 9 6 9 10 11 13 13 9 8 7 6 5 5 6 6 6 6
7 3 7 6 4 3 2 5 3 5 6 3 2 3 1 1 4 6 7 7 7 6 6 7 10 10 13 12 11 11 10 9 7 4 7 9 10 11 10 7 6 5 4 4 3 3 4 5 5
4 4 6 5 5 4 1 2 2 4 4 6 3 4 5 5 8 7 7 6 6 5 5 5 6 7 7 7 11 10 10 9 7 6 6 7 5 8 9 6 5 6 6 5 3 1 2 4 6
1 2 10 9 8 3 2 3 6 5 3 3 5 4 3 11 12 10 9 5 5 5 5 4 5 5 6 7 8 9 9 8 7 6 6 6 3 3 3 3 2 2 3 4 3 2 1 2 4
5 11 9 4 3 5 3 5 6 6 8 7 7 10 3 14 12 14 13 12 12 10 7 5 5 5 4 5 6 5 5 4 4 4 4 3 3 3 3 3 3 3 3 3 4 4 2 2 1
5 18 4 2 8 5 3 3 3 5 5 4 6 11 5 9 10 12 11 13 14 6 4 5 5 4 5 4 3 2 2 3 3 5 4 4 3 2 2 1 1 1 3 1 2 2 1 1 1
5 9 9 2 5 3 1 3 3 2 4 6 8 7 4 8 11 12 12 10 7 6 6 5 5 5 4 3 3 4 3 3 3 4 5 4 3 3 3 2 3 3 2 3 3 2 3 3 3
3 7 12 6 5 5 4 5 2 11 2 6 13 9 5 7 6 2 3 5 5 6 6 7 6 6 5 4 3 3 4 4 4 4 4 4 4 4 3 4 3 3 3 3 3 4 4 4 4
7 5 13 11 10 6 3 4 7 9 7 10 12 11 6 7 6 4 6 6 6 6 6 6 7 6 6 5 5 4 3 4 4 4 5 6 4 4 4 4 4 4 4 3 4 4 4 4 3
2 7 6 8 5 4 7 5 7 11 9 9 10 9 7 5 5 7 5 6 7 5 6 8 8 6 6 6 5 4 4 4 4 4 6 7 6 5 5 4 4 4 4 5 4 4 3 4 3
5 6 5 5 11 4 8 7 9 4 7 10 9 9 9 7 4 6 6 5 7 5 7 5 5 7 7 6 5 4 4 4 5 4 4 7 7 7 5 4 5 4 4 4 4 4 4 4 4
5 6 6 5 15 10 10 3 11 5 6 9 10 7 7 8 8 6 5 6 6 6 5 6 6 6 7 6 4 4 5 4 4 4 4 6 7 7 6 5 5 4 4 4 4 4 4 4 4
11 6 3 6 15 9 13 6 9 8 3 9 13 11 7 8 9 7 7 3 2 2 3 4 4 5 5 3 3 2 3 4 4 5 5 6 5 6 6 4 5 4 4 4 4 6 4 5 5
8 7 6 2 6 6 11 3 6 8 4 13 15 15 8 10 4 3 3 4 4 4 5 4 5 1 2 2 2 2 3 2 3 4 6 5 5 6 6 5 5 5 6 7 6 4 6 4 3
8 7 5 2 4 9 6 9 9 12 14 17 17 17 14 6 5 4 4 2 2 4 4 5 5 4 3 2 1 0 0 1 2 1 3 4 5 5 5 5 5 6 4 5 5 5 3 3 4
3 8 6 6 5 2 6 5 8 8 10 11 15 16 8 8 9 6 6 5 5 5 4 5 4 4 4 3 2 1 1 1 1 1 1 3 4 3 4 4 4 5 4 5 5 5 7 5 3
3 5 6 8 6 5 3 5 9 10 13 9 17 18 13 9 6 6 7 6 6 4 4 5 5 5 4 4 3 2 1 1 1 2 2 4 6 5 6 5 4 4 3 5 5 4 5 4 5
2 5 6 4 4 3 1 1 6 5 16 24 21 15 10 10 10 11 9 6 4 4 4 5 6 6 5 5 4 3 2 1 1 1 3 4 4 5 5 5 5 5 4 5 5 4 5 4 3
6 7 8 5 3 2 6 5 5 7 13 3 7 15 14 11 9 7 6 7 5 4 5 5 6 5 6 6 6 5 4 3 3 3 4 4 3 4 5 5 4 4 4 5 4 4 5 4 4
5 5 3 3 2 5 1 6 11 5 6 6 8 8 9 8 8 8 10 7 6 5 4 5 6 5 5 6 6 6 6 6 5 4 3 4 3 3 5 6 5 4 5 6 4 3 3 3 2
2 4 6 6 4 4 0 7 7 6 5 6 6 7 6 8 8 10 9 8 7 7 6 6 6 5 5 6 6 5 6 4 3 4 3 3 2 2 4 5 5 6 6 6 5 3 3 3 3
4 2 3 7 2 3 4 7 8 10 9 5 7 4 6 7 7 8 8 8 8 7 6 7 6 6 5 5 5 5 5 5 4 5 4 3 3 4 5 5 5 6 6 6 5 4 4 5 5
4 4 4 4 1 3 5 5 7 7 7 7 5 7 6 7 8 7 7 7 6 6 6 6 6 6 5 5 5 4 5 5 4 4 5 5 4 5 5 5 5 6 6 6 5 4 5 6 4
2 2 2 2 4 4 2 7 7 5 7 9 7 7 8 8 8 7 6 6 6 6 6 6 6 6 5 5 4 5 4 5 5 5 5 4 4 5 5 5 5 5 6 6 5 5 5 6 5
2 4 5 4 4 1 3 9 2 6 7 6 6 5 7 6 7 7 6 7 6 6 6 6 5 5 5 5 5 5 4 5 5 5 5 4 5 5 5 5 5 5 6 6 6 6 5 6 6
Wind_Direction
334 316 303 47 68 66 249 259 270 325 246 257 59 132 170 76 157 199 305 183 135 148 142 146 145 146 141 136 139 138 144 143 119 113 117 122 127 127 124 114 104 97 91 92 95 92 91 96 97
344 298 34 88 93 106 259 262 272 270 326 62 109 83 64 94 83 98 113 192 140 140 136 143 142 145 140 140 138 131 114 106 110 114 121 133 136 136 130 122 112 100 95 96 95 96 94 97 92
317 354 86 101 117 176 213 182 302 294 280 219 47 55 102 64 39 148 133 144 136 134 133 142 149 136 137 130 128 123 120 116 107 115 132 139 141 139 136 123 113 103 102 102 101 101 101 98 85
2 340 46 101 190 242 204 333 312 332 2 181 121 65 43 333 149 158 135 132 132 134 132 141 140 135 130 131 129 130 126 119 119 134 154 145 146 142 142 121 115 108 108 108 104 101 103 97 80
29 301 93 135 220 259 250 278 309 324 297 346 32 198 67 1 109 131 134 138 153 138 138 137 139 135 132 136 134 130 123 127 133 139 156 142 141 139 119 122 119 116 115 112 109 107 105 96 81
1 150 135 186 217 256 292 325 307 330 300 65 93 112 196 15 116 137 134 142 149 144 151 154 145 140 139 141 138 133 131 139 146 155 114 116 135 132 120 124 121 123 123 123 111 102 97 84 71
161 279 185 162 200 297 187 317 50 317 280 6 125 98 302 90 109 111 115 119 129 133 143 164 149 146 147 147 147 141 138 142 153 140 122 111 109 106 121 128 129 133 133 133 119 87 69 59 52
133 224 148 176 173 227 53 36 34 46 296 298 68 210 187 188 126 97 91 102 117 131 138 138 135 149 153 157 156 152 148 149 152 134 109 109 106 126 141 151 164 162 163 163 161 103 48 49 41
109 247 210 182 163 165 51 65 334 295 295 351 2 302 301 124 121 117 129 126 142 152 159 140 148 152 155 153 163 159 158 152 152 144 131 124 121 117 129 156 206 186 172 188 197 206 208 66 68
185 199 224 183 72 115 92 83 318 9 342 34 13 359 33 143 141 151 162 173 182 183 181 159 151 150 133 131 143 152 154 152 151 151 152 147 162 169 172 195 225 233 217 218 235 244 261 45 28
210 207 186 66 120 89 87 76 354 359 28 105 325 315 303 168 161 165 176 179 185 185 163 168 160 156 160 134 139 145 152 149 161 166 165 173 168 190 191 208 258 239 245 243 267 291 318 271 279
185 212 201 61 86 92 105 139 12 325 229 322 314 253 248 219 189 175 184 182 171 171 183 169 166 164 171 139 161 160 161 167 178 186 179 174 188 202 216 215 225 215 219 228 232 235 252 267 272
233 173 197 154 126 87 88 36 295 275 297 329 346 335 225 229 217 217 195 160 159 186 184 186 172 177 174 173 164 173 184 187 184 184 196 182 195 207 208 219 216 212 213 219 233 236 244 256 263
184 190 175 148 159 138 102 32 3 275 25 348 347 328 300 243 228 182 177 182 178 194 197 187 194 190 171 185 184 193 184 196 189 190 200 199 198 203 208 214 218 222 210 212 220 225 235 246 243
358 111 124 161 146 115 88 282 246 279 1 327 327 319 289 265 261 237 208 193 185 207 206 192 196 189 184 193 197 190 202 193 205 207 200 205 200 207 209 211 217 224 211 217 227 237 237 250 244
160 117 148 182 163 103 121 235 236 254 332 299 309 311 312 296 256 248 243 208 194 201 210 205 189 187 193 198 199 195 198 197 213 211 198 209 209 205 205 209 221 220 204 204 212 220 243 241 231
191 162 148 151 182 150 179 213 232 148 237 281 288 284 282 298 296 283 263 231 213 206 205 208 203 195 195 208 206 203 211 203 219 213 211 213 213 211 206 212 224 204 209 212 215 229 212 235 240
166 132 145 154 193 174 183 205 148 169 245 274 278 275 261 261 262 292 276 270 23 54 159 194 200 198 196 187 181 196 206 224 218 223 224 222 217 208 203 215 216 190 201 220 211 231 212 232 246
114 111 144 95 179 143 199 219 151 184 173 277 268 264 244 252 270 293 291 144 109 55 88 89 127 93 147 142 157 198 217 209 224 216 224 223 221 217 207 220 215 193 201 226 207 203 222 246 193
120 126 156 96 171 187 161 209 239 173 183 221 254 267 258 221 210 225 216 181 102 117 99 96 96 85 82 106 127 89 31 262 278 281 262 237 239 222 217 218 219 200 211 225 216 188 212 233 178
60 150 167 152 112 49 139 245 212 236 196 197 219 238 270 244 208 207 203 183 145 132 126 106 90 87 78 86 113 72 29 14 4 22 20 26 7 339 283 263 242 227 201 228 217 199 198 234 202
98 161 128 135 121 183 192 255 235 224 226 219 232 231 230 213 198 202 205 179 164 154 121 105 88 74 59 47 73 92 137 239 329 343 341 352 14 20 18 353 308 268 233 229 231 206 209 177 234
153 141 117 87 90 114 168 236 234 167 228 227 223 230 218 201 193 198 193 170 147 138 125 107 87 66 55 61 70 99 113 158 281 5 14 38 50 49 28 20 8 349 293 265 239 218 204 193 190
154 80 55 57 79 348 201 184 236 199 223 228 219 234 223 195 199 175 158 140 132 126 115 110 97 72 58 61 55 68 70 47 59 26 23 11 6 17 18 7 7 360 352 328 287 248 222 208 204
72 76 44 18 3 219 278 205 258 258 229 219 236 234 228 192 170 165 158 156 145 133 108 104 94 77 71 72 59 56 63 65 71 54 43 26 6 4 356 357 2 353 346 346 333 285 234 202 198
177 139 147 178 200 247 138 236 256 256 295 245 262 259 205 181 168 168 163 154 155 148 136 120 111 100 82 77 69 61 60 67 65 52 45 43 22 360 358 359 8 1 357 349 351 4 31 71 83
184 142 153 108 35 47 239 290 286 269 279 293 277 208 198 166 167 157 154 155 156 154 152 143 126 109 99 95 86 65 56 57 52 36 34 28 9 4 18 18 17 8 4 2 14 30 28 52 46
90 161 62 4 130 269 286 277 241 301 306 298 249 224 185 160 160 164 165 164 163 151 137 130 130 126 118 104 91 78 67 56 49 43 32 23 12 14 22 25 29 23 16 12 31 32 29 62 43
98 121 85 131 142 183 280 261 207 238 283 287 267 196 183 170 173 171 167 163 154 139 142 140 132 131 124 112 101 91 73 62 56 52 33 23 24 21 31 34 37 33 30 22 45 52 45 69 60
190 195 156 148 225 152 144 269 235 259 274 271 270 198 171 169 172 164 163 156 155 154 151 152 142 133 128 118 105 91 80 71 63 53 42 42 46 36 40 43 44 35 35 32 44 58 54 68 63